, NV

(GMT )
Eureka Airport

Weather History for K05U - November, 2012

Change the Weather History Date:

Tuesday, November 13, 2012

  Actual Average Record
Temperature  
Mean Temperature 32 °F -  
Max Temperature 50 °F - - ()
Min Temperature 15 °F - - ()
Degree Days  
Heating Degree Days 32    
Moisture  
Dew Point -    
Average Humidity    
Maximum Humidity    
Minimum Humidity    
Precipitation  
Precipitation 0.00 in - - ()
Sea Level Pressure  
Sea Level Pressure 30.31 in    
Wind  
Wind Speed 4 mph ()    
Max Wind Speed 9 mph    
Max Gust Speed -    
Visibility 10.0 miles    
Events      
Averages and records for this station are not official NWS values.
T = Trace of Precipitation, MM = Missing Value Source: Averaged Metar Reports

Daily Weather History Graph

Daily Weather History Graph

Search for Another Location

Airport or City:

Trip Planner

Search our weather history database for the weather conditions in past years. The results will help you decide how hot, cold, wet, or windy it might be!

Date:

Astronomy

Nov. 13, 2012 Rise Set
Actual Time 6:26 AM PST 4:29 PM PST
Civil Twilight 5:57 AM PST 4:58 PM PST
Nautical Twilight 5:25 AM PST 5:30 PM PST
Astronomical Twilight 4:53 AM PST 6:02 PM PST
Moon 6:09 AM PST (11/13) 4:26 PM PST (11/13)
Length of Visible Light 11h 00m
Length of Day
10h 03m
Waning Crescent, 0% of the Moon is Illuminated
Nov 13
Waning Crescent
Nov 13
New
Nov 20
First Quarter
Nov 28
Full
Dec 6
Last Quarter

Hourly Weather History & Observations

Time (PST) Temp. Windchill Dew Point Humidity Pressure Visibility Wind Dir Wind Speed Gust Speed Precip Events Conditions
12:00 AM 24.8 °F 17.9 °F - N/A% 30.38 in 10.0 mi South 5.8 mph - N/A   Clear
12:20 AM 24.8 °F 16.9 °F - N/A% 30.37 in 10.0 mi South 6.9 mph - N/A   Clear
1:00 AM 23.0 °F 15.8 °F - N/A% 30.36 in 10.0 mi SSW 5.8 mph - N/A   Clear
1:20 AM 23.0 °F 15.8 °F - N/A% 30.37 in 10.0 mi SSW 5.8 mph - N/A   Clear
1:40 AM 23.0 °F 14.7 °F - N/A% 30.37 in 10.0 mi SSW 6.9 mph - N/A   Clear
2:00 AM 23.0 °F 15.8 °F - N/A% 30.37 in 10.0 mi SSW 5.8 mph - N/A   Clear
2:20 AM 21.2 °F 16.4 °F - N/A% 30.37 in 10.0 mi SW 3.5 mph - N/A   Clear
2:40 AM 21.2 °F 12.6 °F - N/A% 30.37 in 10.0 mi SW 6.9 mph - N/A   Clear
3:00 AM 17.6 °F 12.3 °F - N/A% 30.37 in 10.0 mi West 3.5 mph - N/A   Clear
3:20 AM 17.6 °F - - N/A% 30.36 in 10.0 mi Calm Calm - N/A   Clear
3:40 AM 17.6 °F 9.3 °F - N/A% 30.36 in 10.0 mi SW 5.8 mph - N/A   Clear
4:20 AM 17.6 °F 8.2 °F - N/A% 30.36 in 10.0 mi SSW 6.9 mph - N/A   Clear
4:40 AM 19.4 °F 12.8 °F - N/A% 30.35 in 10.0 mi South 4.6 mph - N/A   Clear
5:00 AM 19.4 °F 11.5 °F - N/A% 30.35 in 10.0 mi SSW 5.8 mph - N/A   Clear
5:20 AM 19.4 °F 11.5 °F - N/A% 30.35 in 10.0 mi SSW 5.8 mph - N/A   Clear
5:40 AM 15.8 °F 7.2 °F - N/A% 30.35 in 10.0 mi SW 5.8 mph - N/A   Clear
6:00 AM 17.6 °F 10.7 °F - N/A% 30.36 in 10.0 mi SW 4.6 mph - N/A   Clear
6:20 AM 17.6 °F 10.7 °F - N/A% 30.36 in 10.0 mi SSW 4.6 mph - N/A   Clear
6:40 AM 17.6 °F 9.3 °F - N/A% 30.37 in 10.0 mi SSW 5.8 mph - N/A   Clear
7:00 AM 17.6 °F 10.7 °F - N/A% 30.37 in 10.0 mi SSW 4.6 mph - N/A   Clear
7:20 AM 19.4 °F 10.4 °F - N/A% 30.37 in 10.0 mi SSW 6.9 mph - N/A   Clear
7:40 AM 23.0 °F 14.7 °F - N/A% 30.37 in 10.0 mi SW 6.9 mph - N/A   Clear
8:00 AM 24.8 °F 17.9 °F - N/A% 30.37 in 10.0 mi SW 5.8 mph - N/A   Clear
8:20 AM 28.4 °F 24.6 °F - N/A% 30.37 in 10.0 mi SW 3.5 mph - N/A   Clear
8:40 AM 32.0 °F - - N/A% 30.37 in 10.0 mi Calm Calm - N/A   Clear
9:00 AM 33.8 °F - - N/A% 30.37 in 10.0 mi Calm Calm - N/A   Clear
9:20 AM 35.6 °F - - N/A% 30.36 in 10.0 mi Calm Calm - N/A   Clear
9:40 AM 37.4 °F - - N/A% 30.36 in 10.0 mi Calm Calm - N/A   Clear
10:00 AM 37.4 °F - - N/A% 30.35 in 10.0 mi Calm Calm - N/A   Clear
10:20 AM 39.2 °F - - N/A% 30.35 in 10.0 mi Calm Calm - N/A   Clear
10:40 AM 41.0 °F - - N/A% 30.34 in 10.0 mi Calm Calm - N/A   Clear
11:00 AM 44.6 °F 42.2 °F - N/A% 30.34 in 10.0 mi NNW 4.6 mph - N/A   Clear
11:40 AM 46.4 °F 44.3 °F - N/A% 30.31 in 10.0 mi NE 4.6 mph - N/A   Clear
12:00 PM 46.4 °F - - N/A% 30.31 in 10.0 mi Calm Calm - N/A   Clear
12:20 PM 46.4 °F - - N/A% 30.30 in 10.0 mi Calm Calm - N/A   Clear
12:40 PM 48.2 °F - - N/A% 30.30 in 10.0 mi Calm Calm - N/A   Clear
1:00 PM 50.0 °F - - N/A% 30.29 in 10.0 mi Calm Calm - N/A   Clear
1:20 PM 50.0 °F - - N/A% 30.28 in 10.0 mi Calm Calm - N/A   Clear
1:40 PM 50.0 °F - - N/A% 30.27 in 10.0 mi SSE 3.5 mph - N/A   Clear
2:00 PM 50.0 °F - - N/A% 30.27 in 10.0 mi Calm Calm - N/A   Clear
2:20 PM 50.0 °F - - N/A% 30.26 in 10.0 mi Calm Calm - N/A   Clear
2:40 PM 50.0 °F - - N/A% 30.26 in 10.0 mi Calm Calm - N/A   Clear
3:00 PM 50.0 °F - - N/A% 30.26 in 10.0 mi SSW 3.5 mph - N/A   Clear
3:20 PM 50.0 °F - - N/A% 30.26 in 10.0 mi SE 3.5 mph - N/A   Clear
3:40 PM 48.2 °F - - N/A% 30.26 in 10.0 mi SE 9.2 mph - N/A   Clear
4:00 PM 48.2 °F - - N/A% 30.26 in 10.0 mi SE 6.9 mph - N/A   Clear
4:20 PM 44.6 °F 40.7 °F - N/A% 30.25 in 10.0 mi SE 6.9 mph - N/A   Clear
4:40 PM 41.0 °F 35.8 °F - N/A% 30.25 in 10.0 mi SSE 8.1 mph - N/A   Clear
5:00 PM 39.2 °F 35.9 °F - N/A% 30.25 in 10.0 mi South 4.6 mph - N/A   Clear
5:20 PM 35.6 °F 31.7 °F - N/A% 30.26 in 10.0 mi South 4.6 mph - N/A   Clear
5:40 PM 37.4 °F 32.1 °F - N/A% 30.26 in 10.0 mi South 6.9 mph - N/A   Clear
6:00 PM 35.6 °F 29.2 °F - N/A% 30.26 in 10.0 mi South 8.1 mph - N/A   Clear
6:20 PM 35.6 °F 31.7 °F - N/A% 30.27 in 10.0 mi SSE 4.6 mph - N/A   Clear
6:40 PM 32.0 °F 25.6 °F - N/A% 30.27 in 10.0 mi SSE 6.9 mph - N/A   Clear
7:00 PM 33.8 °F 28.6 °F - N/A% 30.27 in 10.0 mi SSE 5.8 mph - N/A   Clear
7:20 PM 35.6 °F - - N/A% 30.27 in 10.0 mi Calm Calm - N/A   Clear
7:40 PM 33.8 °F 29.6 °F - N/A% 30.27 in 10.0 mi SSE 4.6 mph - N/A   Clear
8:00 PM 32.0 °F 28.7 °F - N/A% 30.28 in 10.0 mi South 3.5 mph - N/A   Clear
8:20 PM 32.0 °F 24.8 °F - N/A% 30.28 in 10.0 mi South 8.1 mph - N/A   Clear
8:40 PM 32.0 °F 24.8 °F - N/A% 30.28 in 10.0 mi SSW 8.1 mph - N/A   Clear
9:00 PM 32.0 °F 27.5 °F - N/A% 30.29 in 10.0 mi SSW 4.6 mph - N/A   Clear
9:20 PM 32.0 °F - - N/A% 30.27 in 10.0 mi Calm Calm - N/A   Clear
9:40 PM 32.0 °F 27.5 °F - N/A% 30.28 in 10.0 mi SSW 4.6 mph - N/A   Clear
10:00 PM 32.0 °F 27.5 °F - N/A% 30.27 in 10.0 mi SSW 4.6 mph - N/A   Clear
10:20 PM 30.2 °F 23.4 °F - N/A% 30.28 in 10.0 mi SSW 6.9 mph - N/A   Clear
10:40 PM 30.2 °F 24.3 °F - N/A% 30.28 in 10.0 mi SSW 5.8 mph - N/A   Clear
11:00 PM 30.2 °F 22.6 °F - N/A% 30.28 in 10.0 mi South 8.1 mph - N/A   Clear
11:20 PM 30.2 °F 22.6 °F - N/A% 30.28 in 10.0 mi SSW 8.1 mph - N/A   Clear
11:40 PM 32.0 °F 24.8 °F - N/A% 30.29 in 10.0 mi SSW 8.1 mph - N/A   Clear